This is the latest recevied weather packets stored in our database for station/object W0VI. If no packets are shown the sender has not sent any weather packets the latest 10 day(s).
| Time | Temp. | Humidity | Pressure | Rain* | Wind** | Luminosity | Snow |
|---|---|---|---|---|---|---|---|
| 1778074947 | 3.33° C | 58% | 1016.8 hPa | 0 mm | - | 235 W/m² | - |
| 1778074645 | 3.33° C | 58% | 1016.7 hPa | 0 mm | - | 186 W/m² | - |
| 1778074341 | 3.89° C | 58% | 1016.6 hPa | 0 mm | - | 217 W/m² | - |
| 1778074038 | 3.33° C | 59% | 1016.6 hPa | 0 mm | - | 208 W/m² | - |
| 1778073735 | 3.33° C | 60% | 1016.5 hPa | 0 mm | - | 206 W/m² | - |
| 1778073433 | 3.33° C | 60% | 1016.6 hPa | 0 mm | - | 232 W/m² | - |
| 1778073129 | 3.33° C | 59% | 1016.6 hPa | 0 mm | - | 308 W/m² | - |
| 1778072826 | 3.33° C | 60% | 1016.6 hPa | 0 mm | - | 260 W/m² | - |
| 1778072523 | 2.78° C | 62% | 1016.3 hPa | 0 mm | - | 210 W/m² | - |
| 1778072221 | 2.78° C | 62% | 1016.2 hPa | 0 mm | - | 209 W/m² | - |
| 1778071919 | 2.78° C | 63% | 1016.1 hPa | 0 mm | - | 148 W/m² | - |
| 1778071616 | 2.22° C | 64% | 1016 hPa | 0 mm | - | 120 W/m² | - |
| 1778071314 | 2.22° C | 64% | 1016 hPa | 0 mm | - | 63 W/m² | - |
| 1778071011 | 2.22° C | 65% | 1015.9 hPa | 0 mm | - | 111 W/m² | - |
| 1778070710 | 2.22° C | 66% | 1015.9 hPa | 0 mm | - | 99 W/m² | - |
| 1778070406 | 1.67° C | 67% | 1016 hPa | 0 mm | - | 79 W/m² | - |
| 1778070104 | 1.67° C | 68% | 1015.7 hPa | 0 mm | - | 80 W/m² | - |
| 1778069802 | 1.67° C | 69% | 1015.5 hPa | 0 mm | - | 62 W/m² | - |
| 1778069498 | 1.11° C | 70% | 1015.6 hPa | 0 mm | - | 55 W/m² | - |
| 1778069196 | 1.11° C | 71% | 1015.9 hPa | 0 mm | - | 48 W/m² | - |
| 1778068893 | 1.11° C | 72% | 1015.6 hPa | 0 mm | - | 43 W/m² | - |
| 1778068591 | 0.56° C | 74% | 1015.6 hPa | 0 mm | - | 40 W/m² | - |
| 1778068289 | 0.56° C | 75% | 1015.4 hPa | 0 mm | - | 29 W/m² | - |
| 1778067986 | 0° C | 75% | 1015.5 hPa | 0 mm | - | 27 W/m² | - |
| 1778067684 | 0° C | 75% | 1015.4 hPa | 0 mm | - | 27 W/m² | - |
* Rain latest hour (hover to see other rain measurements)
** Current wind speed in m/s (hover to see current wind gust speed)